Location: Gönnheim
(49.4488°N, 8.2383°E)
Time: 21:31:22
(UTC+00:00)

Cosmos 1842 - Pass Details

Date: 19 May 2025
Orbit: 440 x 450 km, 82.5° (Epoch: 15 June)

Event Time Altitude Azimuth Distance (km) Brightness Sun altitude
Exits shadow 23:37:43 28° 271° (W) 884 4.3 -20.5°
Maximum altitude 23:38:12 29° 287° (WNW) 859 4.4 -20.5°
Drops below altitude 10° 23:41:18 10° 350° (N) 1,601 6.8 -20.5°
Sets 23:43:34 0° 2° (N) 2,481 8.3 -20.4°
